| time (UTC) | temp F | wind direction | speed MPH | gust MPH | rain 1hr in | rain 24hr in | rain mn in | humidity % | barometer mb |
| 20260509192003 | 61 | 17 | 6.0 | 14.0 | 0.00 | 0.00 | 0.00 | 66 | 1016.5 |
| 20260509191504 | 62 | 7 | 7.0 | 15.0 | 0.00 | 0.00 | 0.00 | 64 | 1016.5 |
| 20260509190003 | 64 | 35 | 7.0 | 14.0 | 0.00 | 0.00 | 0.00 | 61 | 1016.3 |
| 20260509185504 | 64 | 35 | 5.0 | 14.0 | 0.00 | 0.00 | 0.00 | 58 | 1016.3 |
| 20260509185003 | 65 | 22 | 5.0 | 12.0 | 0.00 | 0.00 | 0.00 | 55 | 1016.2 |
| 20260509184503 | 65 | 40 | 4.0 | 9.0 | 0.00 | 0.00 | 0.00 | 50 | 1016.1 |
| 20260509184004 | 65 | 39 | 4.0 | 10.0 | 0.00 | 0.00 | 0.00 | 49 | 1016.1 |
| 20260509183504 | 66 | 37 | 7.0 | 12.0 | 0.00 | 0.00 | 0.00 | 49 | 1016.0 |
| 20260509183004 | 66 | 34 | 6.0 | 13.0 | 0.00 | 0.00 | 0.00 | 48 | 1015.9 |
| 20260509182504 | 66 | 62 | 5.0 | 12.0 | 0.00 | 0.00 | 0.00 | 48 | 1015.9 |
| 20260509181504 | 67 | 62 | 6.0 | 14.0 | 0.00 | 0.00 | 0.00 | 47 | 1015.8 |
| 20260509181004 | 67 | 37 | 6.0 | 12.0 | 0.00 | 0.00 | 0.00 | 47 | 1015.8 |
| 20260509180504 | 68 | 66 | 5.0 | 10.0 | 0.00 | 0.00 | 0.00 | 46 | 1015.8 |
| 20260509180004 | 68 | 41 | 6.0 | 10.0 | 0.00 | 0.00 | 0.00 | 47 | 1015.8 |
| 20260509175504 | 69 | 43 | 5.0 | 12.0 | 0.00 | 0.00 | 0.00 | 46 | 1015.8 |
| 20260509174503 | 69 | 45 | 3.0 | 10.0 | 0.00 | 0.00 | 0.00 | 46 | 1015.8 |
| 20260509174004 | 69 | 35 | 4.0 | 12.0 | 0.00 | 0.00 | 0.00 | 46 | 1015.8 |
| 20260509173503 | 69 | 60 | 6.0 | 12.0 | 0.00 | 0.00 | 0.00 | 46 | 1015.8 |
| 20260509173004 | 69 | 93 | 6.0 | 12.0 | 0.00 | 0.00 | 0.00 | 46 | 1015.8 |
| 20260509172004 | 69 | 62 | 5.0 | 12.0 | 0.00 | 0.00 | 0.00 | 48 | 1015.8 |
| 20260509171004 | 69 | 91 | 6.0 | 12.0 | 0.00 | 0.00 | 0.00 | 48 | 1015.7 |
| 20260509170504 | 69 | 45 | 5.0 | 10.0 | 0.00 | 0.00 | 0.00 | 49 | 1015.8 |
| 20260509170003 | 69 | 89 | 3.0 | 9.0 | 0.00 | 0.00 | 0.00 | 49 | 1015.9 |
| 20260509165503 | 69 | 63 | 5.0 | 10.0 | 0.00 | 0.00 | 0.00 | 50 | 1015.9 |
| 20260509165003 | 69 | 35 | 3.0 | 9.0 | 0.00 | 0.00 | 0.00 | 50 | 1015.9 |
| 20260509164504 | 69 | 60 | 3.0 | 10.0 | 0.00 | 0.00 | 0.00 | 51 | 1015.9 |
| 20260509164004 | 69 | 18 | 4.0 | 12.0 | 0.00 | 0.00 | 0.00 | 51 | 1016.0 |
| 20260509163503 | 69 | 50 | 5.0 | 13.0 | 0.00 | 0.00 | 0.00 | 50 | 1015.9 |
| 20260509163004 | 68 | 103 | 3.0 | 6.0 | 0.00 | 0.00 | 0.00 | 51 | 1016.0 |
| 20260509162503 | 68 | 88 | 5.0 | 10.0 | 0.00 | 0.00 | 0.00 | 51 | 1015.9 |
| 20260509162004 | 68 | 101 | 6.0 | 9.0 | 0.00 | 0.00 | 0.00 | 52 | 1015.9 |
| 20260509161503 | 67 | 72 | 4.0 | 8.0 | 0.00 | 0.00 | 0.00 | 53 | 1015.9 |
| 20260509161003 | 67 | 64 | 3.0 | 10.0 | 0.00 | 0.00 | 0.00 | 53 | 1015.9 |
| 20260509160003 | 67 | 93 | 7.0 | 10.0 | 0.00 | 0.00 | 0.00 | 51 | 1016.0 |
| 20260509155503 | 67 | 106 | 6.0 | 12.0 | 0.00 | 0.00 | 0.00 | 51 | 1016.0 |
| 20260509155003 | 68 | 95 | 5.0 | 12.0 | 0.00 | 0.00 | 0.00 | 52 | 1016.1 |
| 20260509154503 | 68 | 98 | 6.0 | 10.0 | 0.00 | 0.00 | 0.00 | 54 | 1016.0 |
| 20260509154003 | 68 | 114 | 3.0 | 8.0 | 0.00 | 0.00 | 0.00 | 53 | 1016.0 |
| 20260509153504 | 68 | 101 | 5.0 | 9.0 | 0.00 | 0.00 | 0.00 | 51 | 1016.0 |
| 20260509152504 | 67 | 94 | 5.0 | 10.0 | 0.00 | 0.00 | 0.00 | 52 | 1016.0 |
| 20260509151504 | 68 | 92 | 5.0 | 12.0 | 0.00 | 0.00 | 0.00 | 54 | 1016.1 |
| 20260509151003 | 68 | 110 | 5.0 | 8.0 | 0.00 | 0.00 | 0.00 | 53 | 1016.0 |
| 20260509150503 | 68 | 99 | 6.0 | 10.0 | 0.00 | 0.00 | 0.00 | 52 | 1016.0 |
| 20260509150004 | 68 | 96 | 6.0 | 13.0 | 0.00 | 0.00 | 0.00 | 53 | 1016.1 |
| 20260509145503 | 68 | 95 | 6.0 | 12.0 | 0.00 | 0.00 | 0.00 | 54 | 1016.0 |
| 20260509145003 | 68 | 58 | 5.0 | 8.0 | 0.00 | 0.00 | 0.00 | 53 | 1016.1 |
| 20260509144503 | 68 | 96 | 5.0 | 12.0 | 0.00 | 0.00 | 0.00 | 53 | 1016.1 |
| 20260509144004 | 68 | 92 | 4.0 | 9.0 | 0.00 | 0.00 | 0.00 | 54 | 1016.1 |
| 20260509143004 | 68 | 89 | 6.0 | 12.0 | 0.00 | 0.00 | 0.00 | 53 | 1016.1 |
| 20260509142503 | 68 | 86 | 4.0 | 10.0 | 0.00 | 0.00 | 0.00 | 55 | 1016.1 |
| 20260509142004 | 68 | 75 | 3.0 | 7.0 | 0.00 | 0.00 | 0.00 | 54 | 1016.1 |
| 20260509141003 | 68 | 107 | 5.0 | 12.0 | 0.00 | 0.00 | 0.00 | 54 | 1016.2 |
| 20260509140503 | 69 | 92 | 5.0 | 12.0 | 0.00 | 0.00 | 0.00 | 52 | 1016.2 |
| 20260509140004 | 69 | 100 | 7.0 | 13.0 | 0.00 | 0.00 | 0.00 | 51 | 1016.2 |
| 20260509135504 | 69 | 108 | 6.0 | 12.0 | 0.00 | 0.00 | 0.00 | 54 | 1016.2 |
| 20260509135004 | 69 | 63 | 5.0 | 9.0 | 0.00 | 0.00 | 0.00 | 54 | 1016.2 |
| 20260509134504 | 69 | 86 | 9.0 | 14.0 | 0.00 | 0.00 | 0.00 | 51 | 1016.2 |
| 20260509134004 | 69 | 108 | 5.0 | 12.0 | 0.00 | 0.00 | 0.00 | 51 | 1016.2 |
| 20260509133503 | 69 | 91 | 5.0 | 10.0 | 0.00 | 0.00 | 0.00 | 53 | 1016.1 |
| 20260509133004 | 69 | 91 | 5.0 | 8.0 | 0.00 | 0.00 | 0.00 | 53 | 1016.2 |
| 20260509132504 | 69 | 100 | 5.0 | 10.0 | 0.00 | 0.00 | 0.00 | 53 | 1016.2 |
| 20260509132004 | 69 | 94 | 6.0 | 10.0 | 0.00 | 0.00 | 0.00 | 52 | 1016.2 |
| 20260509131503 | 69 | 118 | 6.0 | 10.0 | 0.00 | 0.00 | 0.00 | 51 | 1016.3 |
| 20260509131003 | 69 | 126 | 7.0 | 12.0 | 0.00 | 0.00 | 0.00 | 50 | 1016.3 |
| 20260509130504 | 68 | 92 | 7.0 | 12.0 | 0.00 | 0.00 | 0.00 | 52 | 1016.3 |
| 20260509125503 | 68 | 88 | 6.0 | 12.0 | 0.00 | 0.00 | 0.00 | 52 | 1016.4 |
| 20260509125003 | 69 | 110 | 6.0 | 9.0 | 0.00 | 0.00 | 0.00 | 51 | 1016.3 |
| 20260509124503 | 69 | 52 | 4.0 | 10.0 | 0.00 | 0.00 | 0.00 | 54 | 1016.4 |
| 20260509124004 | 69 | 71 | 5.0 | 12.0 | 0.00 | 0.00 | 0.00 | 50 | 1016.4 |
| 20260509123503 | 70 | 75 | 5.0 | 10.0 | 0.00 | 0.00 | 0.00 | 50 | 1016.5 |
| 20260509122505 | 70 | 109 | 7.0 | 12.0 | 0.00 | 0.00 | 0.00 | 52 | 1016.6 |
| 20260509122004 | 70 | 89 | 5.0 | 10.0 | 0.00 | 0.00 | 0.00 | 54 | 1016.7 |
| 20260509121504 | 70 | 116 | 6.0 | 15.0 | 0.00 | 0.00 | 0.00 | 50 | 1016.6 |
| 20260509121004 | 70 | 84 | 5.0 | 10.0 | 0.00 | 0.00 | 0.00 | 54 | 1016.7 |
| 20260509120503 | 69 | 114 | 6.0 | 13.0 | 0.00 | 0.00 | 0.00 | 53 | 1016.7 |
| 20260509115503 | 69 | 72 | 5.0 | 13.0 | 0.00 | 0.00 | 0.00 | 55 | 1016.8 |
| 20260509115003 | 69 | 98 | 6.0 | 12.0 | 0.00 | 0.00 | 0.00 | 54 | 1016.9 |
| 20260509114504 | 69 | 92 | 5.0 | 12.0 | 0.00 | 0.00 | 0.00 | 56 | 1016.9 |
| 20260509114003 | 69 | 88 | 6.0 | 12.0 | 0.00 | 0.00 | 0.00 | 52 | 1016.9 |
| 20260509113504 | 69 | 85 | 4.0 | 9.0 | 0.00 | 0.00 | 0.00 | 58 | 1017.0 |
| 20260509113003 | 68 | 55 | 5.0 | 12.0 | 0.00 | 0.00 | 0.00 | 57 | 1017.1 |
| 20260509112504 | 68 | 57 | 6.0 | 10.0 | 0.00 | 0.00 | 0.00 | 56 | 1017.1 |
| 20260509112003 | 67 | 103 | 5.0 | 10.0 | 0.00 | 0.00 | 0.00 | 54 | 1017.2 |
| 20260509111003 | 67 | 82 | 7.0 | 12.0 | 0.00 | 0.00 | 0.00 | 54 | 1017.3 |
| 20260509110503 | 67 | 92 | 5.0 | 13.0 | 0.00 | 0.00 | 0.00 | 55 | 1017.3 |
| 20260509110004 | 67 | 78 | 6.0 | 12.0 | 0.00 | 0.00 | 0.00 | 54 | 1017.3 |
| 20260509105504 | 66 | 104 | 4.0 | 10.0 | 0.00 | 0.00 | 0.00 | 57 | 1017.3 |
| 20260509104504 | 66 | 76 | 6.0 | 12.0 | 0.00 | 0.00 | 0.00 | 54 | 1017.4 |
| 20260509104003 | 66 | 119 | 7.0 | 12.0 | 0.00 | 0.00 | 0.00 | 56 | 1017.4 |
| 20260509103503 | 67 | 96 | 7.0 | 12.0 | 0.00 | 0.00 | 0.00 | 55 | 1017.4 |
| 20260509102504 | 66 | 104 | 5.0 | 10.0 | 0.00 | 0.00 | 0.00 | 57 | 1017.5 |
| 20260509102004 | 66 | 65 | 8.0 | 12.0 | 0.00 | 0.00 | 0.00 | 55 | 1017.5 |
| 20260509101004 | 66 | 81 | 5.0 | 12.0 | 0.00 | 0.00 | 0.00 | 58 | 1017.5 |
| 20260509100505 | 65 | 107 | 4.0 | 12.0 | 0.00 | 0.00 | 0.00 | 59 | 1017.5 |
| 20260509100005 | 65 | 109 | 7.0 | 12.0 | 0.00 | 0.00 | 0.00 | 58 | 1017.5 |
| 20260509095503 | 64 | 89 | 7.0 | 9.0 | 0.00 | 0.00 | 0.00 | 58 | 1017.6 |
| 20260509095004 | 64 | 113 | 6.0 | 10.0 | 0.00 | 0.00 | 0.00 | 58 | 1017.6 |
| 20260509094504 | 64 | 109 | 8.0 | 12.0 | 0.00 | 0.00 | 0.00 | 56 | 1017.6 |
| 20260509093503 | 64 | 107 | 6.0 | 12.0 | 0.00 | 0.00 | 0.00 | 57 | 1017.6 |
| 20260509093003 | 64 | 96 | 4.0 | 9.0 | 0.00 | 0.00 | 0.00 | 60 | 1017.6 |
| 20260509092503 | 64 | 108 | 5.0 | 10.0 | 0.00 | 0.00 | 0.00 | 58 | 1017.6 |
| 20260509092004 | 64 | 90 | 7.0 | 12.0 | 0.00 | 0.00 | 0.00 | 58 | 1017.6 |
| 20260509091504 | 64 | 78 | 6.0 | 10.0 | 0.00 | 0.00 | 0.00 | 57 | 1017.5 |
| 20260509091004 | 64 | 95 | 6.0 | 10.0 | 0.00 | 0.00 | 0.00 | 59 | 1017.5 |
| 20260509090503 | 64 | 92 | 6.0 | 9.0 | 0.00 | 0.00 | 0.00 | 58 | 1017.6 |
| 20260509090004 | 64 | 98 | 3.0 | 8.0 | 0.00 | 0.00 | 0.00 | 61 | 1017.5 |
| 20260509085504 | 64 | 127 | 4.0 | 8.0 | 0.00 | 0.00 | 0.00 | 63 | 1017.6 |
| 20260509085004 | 64 | 123 | 6.0 | 10.0 | 0.00 | 0.00 | 0.00 | 60 | 1017.5 |
| 20260509084005 | 63 | 102 | 6.0 | 9.0 | 0.00 | 0.00 | 0.00 | 62 | 1017.5 |
| 20260509083004 | 63 | 90 | 6.0 | 10.0 | 0.00 | 0.00 | 0.00 | 61 | 1017.5 |
| 20260509082503 | 63 | 77 | 3.0 | 9.0 | 0.00 | 0.00 | 0.00 | 65 | 1017.5 |
| 20260509082004 | 63 | 56 | 5.0 | 9.0 | 0.00 | 0.00 | 0.00 | 64 | 1017.5 |
| 20260509081504 | 62 | 64 | 3.0 | 7.0 | 0.00 | 0.00 | 0.00 | 63 | 1017.6 |
| 20260509081004 | 62 | 80 | 3.0 | 8.0 | 0.00 | 0.00 | 0.00 | 66 | 1017.7 |
| 20260509080004 | 61 | 74 | 3.0 | 10.0 | 0.00 | 0.00 | 0.00 | 66 | 1017.7 |
| 20260509075505 | 61 | 92 | 5.0 | 9.0 | 0.00 | 0.00 | 0.00 | 66 | 1017.7 |
| 20260509075004 | 61 | 93 | 3.0 | 8.0 | 0.00 | 0.00 | 0.00 | 67 | 1017.7 |
| 20260509074505 | 60 | 97 | 3.0 | 7.0 | 0.00 | 0.00 | 0.00 | 67 | 1017.7 |
| 20260509074003 | 60 | 121 | 2.0 | 3.0 | 0.00 | 0.00 | 0.00 | 71 | 1017.7 |
| 20260509073503 | 59 | 121 | 1.0 | 3.0 | 0.00 | 0.00 | 0.00 | 72 | 1017.7 |
| 20260509073006 | 58 | 121 | 1.0 | 3.0 | 0.00 | 0.00 | 0.00 | 72 | 1017.7 |
| 20260509072004 | 57 | 123 | 1.0 | 3.0 | 0.00 | 0.00 | 0.00 | 78 | 1017.7 |
| 20260509071004 | 55 | 109 | 2.0 | 3.0 | 0.00 | 0.00 | 0.00 | 82 | 1017.6 |
| 20260509070503 | 54 | 109 | 1.0 | 3.0 | 0.00 | 0.00 | 0.00 | 85 | 1017.7 |
| 20260509065503 | 51 | 109 | 2.0 | 3.0 | 0.00 | 0.00 | 0.00 | 89 | 1017.6 |
| 20260509065003 | 51 | 109 | 1.0 | 2.0 | 0.00 | 0.00 | 0.00 | 89 | 1017.6 |
| 20260509064504 | 50 | 109 | 0.0 | 2.0 | 0.00 | 0.00 | 0.00 | 90 | 1017.6 |
| 20260509064004 | 50 | 109 | 1.0 | 3.0 | 0.00 | 0.00 | 0.00 | 91 | 1017.7 |
| 20260509063504 | 49 | 109 | 2.0 | 3.0 | 0.00 | 0.00 | 0.00 | 91 | 1017.7 |
| 20260509063004 | 49 | 109 | 2.0 | 3.0 | 0.00 | 0.00 | 0.00 | 91 | 1017.6 |
| 20260509062504 | 48 | 110 | 1.0 | 3.0 | 0.00 | 0.00 | 0.00 | 92 | 1017.6 |
| 20260509062003 | 48 | 110 | 1.0 | 3.0 | 0.00 | 0.00 | 0.00 | 92 | 1017.5 |
| 20260509061505 | 47 | 110 | 1.0 | 2.0 | 0.00 | 0.00 | 0.00 | 93 | 1017.5 |
| 20260509061004 | 47 | 111 | 1.0 | 2.0 | 0.00 | 0.00 | 0.00 | 93 | 1017.5 |
| 20260509060504 | 46 | 111 | 1.0 | 3.0 | 0.00 | 0.00 | 0.00 | 93 | 1017.5 |
| 20260509060004 | 46 | 111 | 0.0 | 0.0 | 0.00 | 0.00 | 0.00 | 92 | 1017.5 |
| 20260509055504 | 45 | 111 | 0.0 | 0.0 | 0.00 | 0.00 | 0.00 | 92 | 1017.4 |
| 20260509054004 | 44 | 111 | 0.0 | 1.0 | 0.00 | 0.00 | 0.00 | 92 | 1017.4 |
| 20260509053505 | 44 | 108 | 0.0 | 1.0 | 0.00 | 0.00 | 0.00 | 92 | 1017.4 |
| 20260509053003 | 43 | 188 | 1.0 | 1.0 | 0.00 | 0.00 | 0.00 | 92 | 1017.4 |
| 20260509052503 | 43 | 188 | 0.0 | 2.0 | 0.00 | 0.00 | 0.00 | 91 | 1017.3 |
| 20260509052004 | 43 | 188 | 0.0 | 2.0 | 0.00 | 0.00 | 0.00 | 91 | 1017.3 |
| 20260509051503 | 43 | 188 | 1.0 | 2.0 | 0.00 | 0.00 | 0.00 | 91 | 1017.4 |
| 20260509051004 | 43 | 188 | 0.0 | 2.0 | 0.00 | 0.00 | 0.00 | 91 | 1017.3 |
| 20260509050503 | 42 | 188 | 0.0 | 0.0 | 0.00 | 0.00 | 0.00 | 90 | 1017.3 |
| 20260509050004 | 42 | 185 | 0.0 | 0.0 | 0.00 | 0.00 | 0.00 | 90 | 1017.3 |
| 20260509045503 | 42 | 185 | 0.0 | 0.0 | 0.00 | 0.00 | 0.00 | 90 | 1017.3 |
| 20260509045004 | 42 | 185 | 0.0 | 2.0 | 0.00 | 0.00 | 0.00 | 90 | 1017.4 |
| 20260509044504 | 42 | 161 | 1.0 | 2.0 | 0.00 | 0.00 | 0.00 | 90 | 1017.4 |
| 20260509044003 | 42 | 132 | 0.0 | 1.0 | 0.00 | 0.00 | 0.00 | 90 | 1017.4 |
| 20260509043003 | 43 | 132 | 0.0 | 1.0 | 0.00 | 0.00 | 0.00 | 90 | 1017.4 |
| 20260509042505 | 43 | 127 | 0.0 | 2.0 | 0.00 | 0.00 | 0.00 | 89 | 1017.4 |
| 20260509042004 | 43 | 122 | 0.0 | 1.0 | 0.00 | 0.00 | 0.00 | 90 | 1017.3 |
| 20260509041504 | 43 | 122 | 0.0 | 1.0 | 0.00 | 0.00 | 0.00 | 89 | 1017.3 |
| 20260509041004 | 43 | 122 | 0.0 | 2.0 | 0.00 | 0.00 | 0.00 | 89 | 1017.3 |
| 20260509040504 | 43 | 122 | 0.0 | 2.0 | 0.00 | 0.00 | 0.00 | 89 | 1017.2 |
| 20260509040004 | 43 | 122 | 0.0 | 2.0 | 0.00 | 0.00 | 0.00 | 90 | 1017.2 |
| 20260509035004 | 44 | 122 | 2.0 | 3.0 | 0.00 | 0.00 | 0.00 | 90 | 1017.2 |
| 20260509034504 | 44 | 122 | 0.0 | 0.0 | 0.00 | 0.00 | 0.00 | 89 | 1017.1 |
| 20260509034004 | 44 | 122 | 0.0 | 0.0 | 0.00 | 0.00 | 0.00 | 89 | 1017.1 |
| 20260509033504 | 44 | 122 | 0.0 | 0.0 | 0.00 | 0.00 | 0.00 | 89 | 1017.2 |
| 20260509032503 | 44 | 122 | 0.0 | 1.0 | 0.00 | 0.00 | 0.00 | 89 | 1017.2 |
| 20260509032004 | 44 | 122 | 0.0 | 0.0 | 0.00 | 0.00 | 0.00 | 89 | 1017.1 |
| 20260509030003 | 45 | 122 | 0.0 | 1.0 | 0.00 | 0.00 | 0.00 | 90 | 1017.1 |
| 20260509025004 | 45 | 122 | 1.0 | 2.0 | 0.00 | 0.00 | 0.00 | 90 | 1017.2 |
| 20260509024504 | 45 | 122 | 2.0 | 3.0 | 0.00 | 0.00 | 0.00 | 90 | 1017.2 |
| 20260509024004 | 45 | 122 | 2.0 | 3.0 | 0.00 | 0.00 | 0.00 | 90 | 1017.2 |
| 20260509023505 | 45 | 205 | 0.0 | 2.0 | 0.00 | 0.00 | 0.00 | 89 | 1017.1 |
| 20260509023004 | 44 | 215 | 0.0 | 0.0 | 0.00 | 0.00 | 0.00 | 89 | 1017.1 |
| 20260509022504 | 45 | 215 | 0.0 | 0.0 | 0.00 | 0.00 | 0.00 | 89 | 1017.1 |
| 20260509022004 | 45 | 215 | 0.0 | 0.0 | 0.00 | 0.00 | 0.00 | 88 | 1017.1 |
| 20260509021504 | 45 | 215 | 0.0 | 0.0 | 0.00 | 0.00 | 0.00 | 88 | 1017.0 |
| 20260509020504 | 45 | 215 | 0.0 | 0.0 | 0.00 | 0.00 | 0.00 | 88 | 1017.1 |
| 20260509020004 | 45 | 215 | 0.0 | 1.0 | 0.00 | 0.00 | 0.00 | 88 | 1017.1 |
| 20260509015503 | 45 | 215 | 0.0 | 2.0 | 0.00 | 0.00 | 0.00 | 88 | 1017.0 |
| 20260509015003 | 45 | 215 | 1.0 | 2.0 | 0.00 | 0.00 | 0.00 | 88 | 1017.1 |
| 20260509014503 | 46 | 215 | 1.0 | 1.0 | 0.00 | 0.00 | 0.00 | 88 | 1017.1 |
| 20260509013503 | 46 | 215 | 1.0 | 1.0 | 0.00 | 0.00 | 0.00 | 88 | 1017.1 |
| 20260509013003 | 46 | 215 | 0.0 | 2.0 | 0.00 | 0.00 | 0.00 | 88 | 1017.1 |
| 20260509012503 | 46 | 215 | 1.0 | 2.0 | 0.00 | 0.00 | 0.00 | 88 | 1017.1 |
| 20260509012005 | 46 | 215 | 0.0 | 1.0 | 0.00 | 0.00 | 0.00 | 88 | 1017.1 |
| 20260509011504 | 46 | 215 | 1.0 | 2.0 | 0.00 | 0.00 | 0.00 | 88 | 1017.1 |
| 20260509011004 | 46 | 215 | 1.0 | 2.0 | 0.00 | 0.00 | 0.00 | 87 | 1017.1 |
| 20260509010504 | 46 | 215 | 0.0 | 0.0 | 0.00 | 0.00 | 0.00 | 87 | 1017.1 |
| 20260509010004 | 46 | 215 | 0.0 | 0.0 | 0.00 | 0.00 | 0.00 | 87 | 1017.1 |
| 20260509005504 | 47 | 215 | 0.0 | 0.0 | 0.00 | 0.00 | 0.00 | 87 | 1017.1 |
| 20260509004504 | 47 | 215 | 0.0 | 1.0 | 0.00 | 0.01 | 0.00 | 87 | 1017.1 |
| 20260509004003 | 47 | 215 | 0.0 | 0.0 | 0.00 | 0.02 | 0.00 | 87 | 1017.0 |
| 20260509003504 | 47 | 215 | 0.0 | 0.0 | 0.00 | 0.02 | 0.00 | 87 | 1017.1 |
| 20260509003004 | 47 | 215 | 0.0 | 0.0 | 0.00 | 0.02 | 0.00 | 87 | 1017.1 |
| 20260509002503 | 47 | 215 | 0.0 | 1.0 | 0.00 | 0.02 | 0.00 | 87 | 1017.1 |
| 20260509002004 | 47 | 215 | 1.0 | 1.0 | 0.00 | 0.02 | 0.00 | 87 | 1017.1 |
| 20260509001003 | 47 | 215 | 0.0 | 0.0 | 0.00 | 0.02 | 0.00 | 86 | 1017.1 |
| 20260509000503 | 48 | 215 | 0.0 | 0.0 | 0.00 | 0.02 | 0.00 | 86 | 1017.1 |
| 20260509000004 | 48 | 215 | 0.0 | 0.0 | 0.00 | 0.02 | 0.00 | 86 | 1017.2 |
| 20260508235503 | 48 | 215 | 0.0 | 0.0 | 0.00 | 0.02 | 0.00 | 86 | 1017.2 |
| 20260508235003 | 48 | 215 | 0.0 | 1.0 | 0.00 | 0.02 | 0.00 | 85 | 1017.2 |
| 20260508234504 | 48 | 215 | 0.0 | 2.0 | 0.00 | 0.02 | 0.00 | 85 | 1017.1 |
| 20260508234004 | 48 | 215 | 1.0 | 2.0 | 0.00 | 0.02 | 0.00 | 85 | 1017.2 |
| 20260508233004 | 48 | 215 | 0.0 | 2.0 | 0.00 | 0.02 | 0.00 | 85 | 1017.1 |
| 20260508232003 | 49 | 215 | 0.0 | 1.0 | 0.00 | 0.02 | 0.00 | 84 | 1017.2 |
| 20260508231504 | 49 | 215 | 0.0 | 0.0 | 0.00 | 0.02 | 0.00 | 84 | 1017.2 |
| 20260508231003 | 49 | 215 | 0.0 | 2.0 | 0.00 | 0.02 | 0.00 | 84 | 1017.3 |
| 20260508230503 | 49 | 215 | 0.0 | 1.0 | 0.00 | 0.02 | 0.00 | 84 | 1017.2 |
| 20260508230004 | 49 | 215 | 0.0 | 0.0 | 0.00 | 0.02 | 0.00 | 84 | 1017.2 |
| 20260508225503 | 49 | 215 | 1.0 | 2.0 | 0.00 | 0.02 | 0.02 | 84 | 1017.2 |
| 20260508225004 | 49 | 215 | 1.0 | 2.0 | 0.00 | 0.02 | 0.02 | 83 | 1017.2 |
| 20260508224504 | 49 | 215 | 0.0 | 1.0 | 0.00 | 0.02 | 0.02 | 83 | 1017.1 |
| 20260508224003 | 50 | 215 | 0.0 | 1.0 | 0.00 | 0.02 | 0.02 | 83 | 1017.1 |
| 20260508223504 | 50 | 215 | 0.0 | 0.0 | 0.00 | 0.02 | 0.02 | 82 | 1017.1 |
| 20260508223003 | 50 | 215 | 0.0 | 1.0 | 0.00 | 0.02 | 0.02 | 82 | 1017.1 |
| 20260508222504 | 50 | 215 | 0.0 | 0.0 | 0.00 | 0.02 | 0.02 | 81 | 1017.1 |
| 20260508221503 | 50 | 215 | 1.0 | 1.0 | 0.00 | 0.02 | 0.02 | 81 | 1017.1 |
| 20260508221004 | 50 | 215 | 0.0 | 0.0 | 0.00 | 0.02 | 0.02 | 81 | 1017.1 |
| 20260508220503 | 51 | 215 | 0.0 | 0.0 | 0.00 | 0.02 | 0.02 | 80 | 1017.1 |
| 20260508220004 | 51 | 215 | 0.0 | 1.0 | 0.00 | 0.02 | 0.02 | 80 | 1017.0 |
| 20260508215504 | 51 | 215 | 1.0 | 2.0 | 0.00 | 0.02 | 0.02 | 80 | 1017.0 |
| 20260508215004 | 51 | 215 | 0.0 | 2.0 | 0.00 | 0.02 | 0.02 | 80 | 1016.9 |
| 20260508214504 | 51 | 215 | 0.0 | 2.0 | 0.00 | 0.02 | 0.02 | 79 | 1016.9 |
| 20260508213504 | 52 | 215 | 1.0 | 3.0 | 0.00 | 0.02 | 0.02 | 79 | 1016.9 |
| 20260508212503 | 52 | 215 | 0.0 | 2.0 | 0.00 | 0.02 | 0.02 | 79 | 1016.8 |
| 20260508211503 | 52 | 213 | 2.0 | 3.0 | 0.00 | 0.02 | 0.02 | 79 | 1016.7 |
| 20260508211003 | 52 | 213 | 2.0 | 3.0 | 0.00 | 0.02 | 0.02 | 79 | 1016.7 |
| 20260508210003 | 53 | 212 | 3.0 | 3.0 | 0.00 | 0.02 | 0.02 | 78 | 1016.7 |
| 20260508205003 | 53 | 216 | 1.0 | 2.0 | 0.00 | 0.02 | 0.02 | 76 | 1016.4 |
| 20260508204003 | 54 | 216 | 0.0 | 0.0 | 0.00 | 0.02 | 0.02 | 75 | 1016.3 |
| 20260508203504 | 54 | 216 | 0.0 | 0.0 | 0.00 | 0.02 | 0.02 | 75 | 1016.3 |
| 20260508203004 | 55 | 216 | 0.0 | 0.0 | 0.00 | 0.02 | 0.02 | 74 | 1016.3 |
| 20260508202504 | 55 | 216 | 0.0 | 1.0 | 0.00 | 0.02 | 0.02 | 74 | 1016.2 |
| 20260508202004 | 55 | 216 | 1.0 | 2.0 | 0.00 | 0.02 | 0.02 | 73 | 1016.1 |
| 20260508200504 | 56 | 216 | 0.0 | 2.0 | 0.00 | 0.02 | 0.02 | 72 | 1016.0 |
| 20260508200004 | 57 | 216 | 1.0 | 3.0 | 0.00 | 0.02 | 0.02 | 72 | 1016.0 |
| 20260508195503 | 57 | 216 | 1.0 | 3.0 | 0.00 | 0.02 | 0.02 | 71 | 1015.9 |
| 20260508195003 | 57 | 215 | 2.0 | 3.0 | 0.00 | 0.02 | 0.02 | 70 | 1015.9 |
| 20260508193503 | 58 | 215 | 2.0 | 3.0 | 0.00 | 0.02 | 0.02 | 69 | 1015.8 |
| 20260508193004 | 58 | 213 | 1.0 | 2.0 | 0.00 | 0.02 | 0.02 | 68 | 1015.8 |
| 20260508192504 | 58 | 207 | 2.0 | 3.0 | 0.00 | 0.02 | 0.02 | 68 | 1015.7 |